TimeCDT,TemperatureF,Dew PointF,Humidity,Sea Level PressureIn,VisibilityMPH,Wind Direction,Wind SpeedMPH,Gust SpeedMPH,PrecipitationIn,Events,Conditions,WindDirDegrees,DateUTC
12:54 AM,61.0,54.0,78,29.83,10.0,North,9.2,-,N/A,,Overcast,10,2012-04-04 05:54:00
1:54 AM,59.0,48.9,69,29.83,9.0,NE,19.6,-,N/A,,Overcast,50,2012-04-04 06:54:00
2:15 AM,57.2,48.2,72,29.84,9.0,ENE,15.0,-,N/A,,Mostly Cloudy,60,2012-04-04 07:15:00
2:54 AM,57.0,46.9,69,29.83,10.0,NE,13.8,-,N/A,,Mostly Cloudy,50,2012-04-04 07:54:00
3:54 AM,55.0,46.0,72,29.84,9.0,ENE,12.7,-,N/A,,Clear,60,2012-04-04 08:54:00
4:54 AM,52.0,45.0,77,29.83,9.0,NNE,10.4,-,N/A,,Mostly Cloudy,30,2012-04-04 09:54:00
5:54 AM,50.0,42.1,74,29.84,10.0,NE,10.4,-,N/A,,Mostly Cloudy,40,2012-04-04 10:54:00
6:54 AM,48.9,41.0,74,29.85,10.0,NE,13.8,-,N/A,,Partly Cloudy,40,2012-04-04 11:54:00
7:54 AM,50.0,41.0,71,29.85,10.0,NE,11.5,-,N/A,,Overcast,50,2012-04-04 12:54:00
8:54 AM,52.0,41.0,66,29.86,10.0,ENE,12.7,-,N/A,,Overcast,60,2012-04-04 13:54:00
9:45 AM,53.6,42.8,67,29.88,10.0,ENE,9.2,-,N/A,,Overcast,70,2012-04-04 14:45:00
9:54 AM,53.6,42.8,67,29.88,10.0,NE,10.4,-,N/A,,Overcast,50,2012-04-04 14:54:00
10:54 AM,55.0,45.0,69,29.87,10.0,NE,12.7,-,N/A,,Overcast,50,2012-04-04 15:54:00
11:34 AM,57.2,46.4,67,29.87,10.0,NE,13.8,-,N/A,,Overcast,50,2012-04-04 16:34:00
11:54 AM,57.9,46.0,65,29.87,10.0,ENE,13.8,-,N/A,,Overcast,70,2012-04-04 16:54:00
12:42 PM,57.2,48.2,72,29.87,8.0,ENE,12.7,-,0.00,Rain,Light Rain,60,2012-04-04 17:42:00
12:54 PM,55.9,48.0,75,29.87,10.0,ENE,9.2,-,0.00,Rain,Light Rain,60,2012-04-04 17:54:00
1:54 PM,57.0,48.9,74,29.84,9.0,ENE,8.1,-,0.00,Rain,Light Rain,70,2012-04-04 18:54:00
2:27 PM,57.2,50.0,77,29.83,7.0,NE,10.4,-,0.00,Rain,Light Rain,50,2012-04-04 19:27:00
2:54 PM,57.9,50.0,75,29.82,10.0,ENE,8.1,-,0.00,,Overcast,70,2012-04-04 19:54:00
3:54 PM,57.0,52.0,83,29.80,9.0,ENE,9.2,-,0.01,,Overcast,60,2012-04-04 20:54:00
4:54 PM,59.0,53.1,81,29.78,10.0,ENE,9.2,-,0.00,Rain,Light Rain,60,2012-04-04 21:54:00
5:54 PM,60.1,51.1,72,29.78,10.0,NE,6.9,-,0.00,,Overcast,40,2012-04-04 22:54:00
6:54 PM,57.9,51.1,78,29.79,10.0,North,4.6,-,N/A,,Overcast,350,2012-04-04 23:54:00
7:54 PM,57.0,51.1,81,29.78,10.0,North,6.9,-,0.00,Rain,Light Rain,10,2012-04-05 00:54:00
8:54 PM,55.0,39.0,55,29.81,10.0,ENE,21.9,26.5,0.00,,Overcast,60,2012-04-05 01:54:00
9:54 PM,51.1,44.1,77,29.82,7.0,ENE,11.5,-,0.01,Rain,Light Rain,70,2012-04-05 02:54:00
10:54 PM,48.9,41.0,74,29.83,8.0,ENE,16.1,-,0.11,Rain,Light Rain,60,2012-04-05 03:54:00
11:54 PM,48.0,42.1,80,29.84,6.0,ENE,9.2,-,0.07,Rain,Rain,60,2012-04-05 04:54:00